This is the latest recevied weather packets stored in our database for station/object K5BV. If no packets are shown the sender has not sent any weather packets the latest 10 day(s).
| Time | Temp. | Humidity | Pressure | Rain* | Wind** | Luminosity | Snow |
|---|---|---|---|---|---|---|---|
| 1777673561 | 19.44° C | 98% | 1007.7 hPa | 0.51 mm | - | - | - |
| 1777672961 | 18.89° C | 98% | 1008.1 hPa | 0.51 mm | - | - | - |
| 1777672361 | 19.44° C | 98% | 1007.9 hPa | 0.51 mm | - | - | - |
| 1777671761 | 19.44° C | 98% | 1008.4 hPa | 0.25 mm | - | - | - |
| 1777671161 | 20° C | 98% | 1007.7 hPa | 0.25 mm | - | - | - |
| 1777670561 | 20° C | 98% | 1007.6 hPa | 0.51 mm | - | - | - |
| 1777669961 | 19.44° C | 98% | 1007.8 hPa | 0.51 mm | - | - | - |
| 1777669361 | 20° C | 97% | 1007.7 hPa | 0.51 mm | - | - | - |
| 1777668761 | 20° C | 97% | 1007.9 hPa | 0.25 mm | - | - | - |
| 1777668161 | 20° C | 97% | 1008 hPa | 1.02 mm | - | - | - |
| 1777667562 | 19.44° C | 97% | 1007.9 hPa | 1.27 mm | - | - | - |
| 1777666961 | 20° C | 97% | 1008 hPa | 1.27 mm | - | - | - |
| 1777666361 | 20.56° C | 97% | 1007.8 hPa | 1.27 mm | - | - | - |
| 1777665761 | 20.56° C | 97% | 1008.1 hPa | 1.27 mm | - | - | - |
| 1777665161 | 21.11° C | 97% | 1008.1 hPa | 1.27 mm | - | - | - |
| 1777664561 | 21.11° C | 97% | 1008.2 hPa | 0.51 mm | - | - | - |
| 1777663962 | 21.11° C | 96% | 1008.5 hPa | 0.25 mm | - | - | - |
| 1777663361 | 21.67° C | 96% | 1008 hPa | 0 mm | - | - | - |
| 1777662761 | 21.67° C | 96% | 1007.5 hPa | 0 mm | - | - | - |
| 1777662162 | 22.22° C | 96% | 1007.6 hPa | 0 mm | - | - | - |
| 1777661561 | 22.22° C | 96% | 1007.4 hPa | 0 mm | - | - | - |
| 1777660961 | 21.67° C | 96% | 1007.5 hPa | 0 mm | - | - | - |
| 1777660361 | 22.22° C | 96% | 1007.6 hPa | 0 mm | - | - | - |
| 1777659761 | 22.22° C | 96% | 1007.8 hPa | 0 mm | - | - | - |
| 1777659161 | 22.22° C | 96% | 1007.8 hPa | 0 mm | - | - | - |
* Rain latest hour (hover to see other rain measurements)
** Current wind speed in m/s (hover to see current wind gust speed)